TimeCDT,TemperatureF,Dew PointF,Humidity,Sea Level PressureIn,VisibilityMPH,Wind Direction,Wind SpeedMPH,Gust SpeedMPH,PrecipitationIn,Events,Conditions,WindDirDegrees,DateUTC
12:53 AM,71.1,69.1,93,29.92,10.0,Calm,Calm,-,N/A,,Clear,0,2013-06-28 05:53:00
1:53 AM,70.0,69.1,97,29.91,10.0,SW,4.6,-,N/A,,Clear,220,2013-06-28 06:53:00
2:39 AM,69.8,68.0,94,29.92,1.5,Calm,Calm,-,N/A,,Clear,0,2013-06-28 07:39:00
2:45 AM,66.2,66.2,100,29.92,0.5,Calm,Calm,-,N/A,,Clear,0,2013-06-28 07:45:00
2:53 AM,68.0,66.9,96,29.91,1.0,Calm,Calm,-,N/A,,Clear,0,2013-06-28 07:53:00
3:03 AM,68.0,66.2,94,29.92,0.5,Calm,Calm,-,N/A,,Clear,0,2013-06-28 08:03:00
3:15 AM,66.2,64.4,94,29.92,0.2,Calm,Calm,-,N/A,,Unknown,0,2013-06-28 08:15:00
3:53 AM,64.0,63.0,96,29.89,0.5,Calm,Calm,-,N/A,,Unknown,0,2013-06-28 08:53:00
4:19 AM,64.4,64.4,100,29.92,1.0,Calm,Calm,-,N/A,,Unknown,0,2013-06-28 09:19:00
4:27 AM,66.2,64.4,94,29.92,0.8,Calm,Calm,-,N/A,,Clear,0,2013-06-28 09:27:00
4:32 AM,66.2,64.4,94,29.92,0.5,Calm,Calm,-,N/A,,Unknown,0,2013-06-28 09:32:00
4:53 AM,64.0,64.0,100,29.91,0.2,Calm,Calm,-,N/A,,Unknown,0,2013-06-28 09:53:00
5:10 AM,66.2,66.2,100,29.92,1.0,Variable,4.6,-,N/A,,Unknown,0,2013-06-28 10:10:00
5:13 AM,66.2,64.4,94,29.92,2.5,Variable,4.6,-,N/A,,Scattered Clouds,0,2013-06-28 10:13:00
5:20 AM,66.2,64.4,94,29.92,5.0,SW,4.6,-,N/A,,Partly Cloudy,230,2013-06-28 10:20:00
5:53 AM,66.0,64.9,96,29.92,3.0,SW,3.5,-,N/A,,Clear,220,2013-06-28 10:53:00
6:53 AM,68.0,66.9,96,29.94,10.0,SW,3.5,-,N/A,,Clear,220,2013-06-28 11:53:00
7:53 AM,70.0,68.0,93,29.93,10.0,Calm,Calm,-,N/A,,Clear,0,2013-06-28 12:53:00
8:53 AM,75.0,66.9,76,29.93,10.0,NNW,9.2,-,N/A,,Scattered Clouds,330,2013-06-28 13:53:00
9:53 AM,78.1,66.9,68,29.93,10.0,NNW,6.9,-,N/A,,Clear,340,2013-06-28 14:53:00
10:53 AM,82.0,64.9,56,29.93,10.0,North,12.7,-,N/A,,Clear,350,2013-06-28 15:53:00
11:53 AM,84.0,61.0,46,29.93,10.0,NNW,13.8,-,N/A,,Clear,340,2013-06-28 16:53:00
12:53 PM,84.9,61.0,44,29.93,10.0,North,16.1,-,N/A,,Partly Cloudy,350,2013-06-28 17:53:00
1:53 PM,86.0,57.9,38,29.91,10.0,NNW,21.9,26.5,N/A,,Clear,330,2013-06-28 18:53:00
2:53 PM,87.1,57.0,36,29.90,10.0,NW,17.3,24.2,N/A,,Clear,320,2013-06-28 19:53:00
3:53 PM,87.1,55.9,35,29.88,10.0,NNW,18.4,26.5,N/A,,Clear,340,2013-06-28 20:53:00
4:53 PM,87.1,55.0,33,29.88,10.0,NNW,19.6,27.6,N/A,,Partly Cloudy,330,2013-06-28 21:53:00
5:53 PM,86.0,54.0,33,29.87,10.0,NNW,17.3,26.5,N/A,,Partly Cloudy,330,2013-06-28 22:53:00
6:53 PM,84.9,55.0,36,29.85,10.0,NNW,12.7,19.6,N/A,,Clear,330,2013-06-28 23:53:00
7:53 PM,82.0,59.0,45,29.85,10.0,NW,8.1,-,N/A,,Clear,310,2013-06-29 00:53:00
8:53 PM,73.9,59.0,59,29.85,10.0,WNW,5.8,-,N/A,,Clear,300,2013-06-29 01:53:00
9:53 PM,71.1,60.1,68,29.86,10.0,West,5.8,-,N/A,,Clear,280,2013-06-29 02:53:00
10:53 PM,70.0,59.0,68,29.86,10.0,WNW,5.8,-,N/A,,Clear,300,2013-06-29 03:53:00
11:53 PM,69.1,59.0,70,29.85,10.0,Calm,Calm,-,N/A,,Clear,0,2013-06-29 04:53:00